Flag for Chile Weather past 2 weeks in Easter Island, Chile

Now
66 °F

Passing clouds.


Feels Like: 66 °F
Forecast: 65 / 70 °F
Wind: 2 mph from North

Location: Isla De Pascua

Current Time: Jul 3, 2015 at 9:05:14 PM

Latest Report: Jul 3, 2015 at 8:00 PM


Visibility: N/A

Pressure: 30.01 "Hg

Humidity: 78%

Dew point: 59 °F

Location of Easter IslandLocation

Historic Weather in Easter Island — Graph

°F

Easter Island temperature yesterday

Maximum temperature yesterday: 70 °F (at 4:00 PM)
Minimum temperature yesterday: 55 °F (at 6:00 AM)
Average temperature yesterday: 62 °F

Past Weeks' High & Low Weather Summary

 TemperatureHumidityPressure
High70 °F (Jun 30, 5:00 PM)94% (Jun 24, 11:00 PM)30.24 "Hg (Jun 24, 11:00 PM)
Low54 °F (Jun 25, 2:00 AM)46% (Jun 19, 4:00 PM)29.95 "Hg (Jun 28, 4:00 PM)
Average63 °F74%30.07 "Hg
* Reported Jun 18 8:00 PM — Jul 3 8:00 PM, Easter Island, Weather by CustomWeather, © 2015

Note: Actual official high and low records may vary slightly from our data, if they occured in-between our weather recording intervals... More about our weather records

Advertising

Easter Island weather history for previous 24 hours

 ConditionsComfort  
Time TempWeatherWind HumidityBarometerVisibility
8:00 PM
Fri, Jul 3
66 °FPassing clouds.2 mph78%30.01 "HgN/A
7:00 PM68 °FPartly sunny.6 mph73%30.01 "HgN/A
5:00 PM70 °FBroken clouds.7 mph73%30.04 "HgN/A
4:00 PM70 °FBroken clouds.8 mph69%30.01 "HgN/A
3:00 PM70 °FBroken clouds.9 mph69%30.04 "HgN/A
2:00 PM68 °FBroken clouds.8 mph73%30.07 "HgN/A
1:00 PM70 °FPartly sunny.7 mph73%30.07 "HgN/A
12:00 PM70 °FPartly sunny.6 mph73%30.09 "HgN/A
11:00 AM64 °FPartly sunny.3 mph83%30.07 "HgN/A
10:00 AM59 °FScattered clouds.2 mph88%30.07 "HgN/A
9:00 AM57 °FPassing clouds.No wind88%30.07 "HgN/A
8:00 AM57 °FPassing clouds.No wind94%30.07 "HgN/A
7:00 AM57 °FPassing clouds.2 mph88%30.07 "HgN/A
6:00 AM61 °FPassing clouds.No wind88%30.07 "HgN/A
5:00 AM61 °FPassing clouds.3 mph94%30.07 "HgN/A
4:00 AM61 °FPassing clouds.3 mph94%30.09 "HgN/A
3:00 AM61 °FPassing clouds.No wind94%30.09 "HgN/A
2:00 AM57 °FPassing clouds.2 mph94%30.09 "HgN/A
1:00 AM59 °FPassing clouds.No wind88%30.09 "HgN/A
12:00 AM57 °FPassing clouds.2 mph94%30.09 "HgN/A
11:00 PM
Thu, Jul 2
59 °FPassing clouds.No wind88%30.09 "HgN/A
10:00 PM61 °FPassing clouds.No wind88%30.09 "HgN/A
9:00 PM63 °FPassing clouds.2 mph83%30.07 "HgN/A
Weather by CustomWeather, © 2015

See weather overviewHow to use our weather pages